Weather History for Atlanta Dekalb, GA

Change the Weather History Date:

Wednesday, October 19, 2011

  Actual Average Record
Temperature  
Mean Temperature 56 °F 61 °F  
Max Temperature 66 °F 72 °F 86 °F (1998)
Min Temperature 46 °F 50 °F 41 °F (2001)
Degree Days  
Heating Degree Days 9 5  
Month to date heating degree days 60  
Since 1 July heating degree days 70  
Cooling Degree Days 0 1  
Month to date cooling degree days 39  
Year to date cooling degree days 1743  
Growing Degree Days 6 (Base 50)    
Moisture  
Dew Point 50 °F    
Average Humidity 85    
Maximum Humidity 94    
Minimum Humidity 66    
Precipitation  
Precipitation 0.59 in 0.10 in 1.00 in (2004)
Month to date precipitation 2.20  
Snow  
Snow 0.00 in - - ()
Month to date snowfall  
Since 1 July snowfall  
Since 1 September snowfall  
Snow Depth -    
Sea Level Pressure  
Sea Level Pressure 29.54 in    
Wind  
Wind Speed 9 mph (West)    
Max Wind Speed 20 mph    
Max Gust Speed 31 mph    
Visibility 7 miles    
Events Rain    
T = Trace of Precipitation, MM = Missing Value Source: NWS Daily Summary

Daily Weather History Graph

Daily Weather History Graph

Search for Another Location

Airport:

Trip Planner

Search our weather history database for the weather conditions in past years. The results will help you decide how hot, cold, wet, or windy it might be!

Date:

Astronomy

Oct. 19, 2011 Rise Set
Actual Time 7:45 AM EDT 6:58 PM EDT
Civil Twilight 7:19 AM EDT 7:23 PM EDT
Nautical Twilight 6:50 AM EDT 7:53 PM EDT
Astronomical Twilight 6:21 AM EDT 8:21 PM EDT
Moon No Moon Rise 2:08 PM EDT (10/19)
Length of Visible Light 12h 04m
Length of Day
11h 13m
Waning Gibbous, 55% of the Moon is Illuminated
Oct 19
Waning Gibbous
Oct 19
Last Quarter
Oct 26
New
Nov 2
First Quarter
Nov 10
Full

Hourly Weather History & Observations

Time (EDT) Temp. Windchill Dew Point Humidity Pressure Visibility Wind Dir Wind Speed Gust Speed Precip Events Conditions
12:53 AM 66.0 °F - 64.0 °F 93% 29.51 in 7.0 mi Calm Calm - N/A   Overcast
1:53 AM 66.0 °F - 63.0 °F 90% 29.49 in 9.0 mi SE 3.5 mph - N/A   Overcast
2:53 AM 66.0 °F - 63.0 °F 90% 29.45 in 6.0 mi SE 5.8 mph - 0.01 in   Overcast
3:03 AM 64.4 °F - 62.6 °F 94% 29.49 in 6.0 mi SE 4.6 mph - 0.00 in Rain Light Rain
3:23 AM 64.4 °F - 62.6 °F 94% 29.48 in 9.0 mi SE 3.5 mph - 0.00 in   Overcast
3:53 AM 64.9 °F - 63.0 °F 93% 29.42 in 8.0 mi SE 3.5 mph - 0.00 in   Overcast
4:14 AM 64.4 °F - 62.6 °F 94% 29.46 in 3.0 mi Calm Calm - 0.04 in Rain Light Rain
4:22 AM 64.4 °F - 62.6 °F 94% 29.46 in 2.5 mi SW 6.9 mph - 0.07 in Rain Rain
4:31 AM 62.6 °F - 60.8 °F 94% 29.46 in 1.8 mi WNW 16.1 mph 21.9 mph 0.15 in Rain Rain
4:38 AM 62.6 °F - 60.8 °F 94% 29.46 in 2.5 mi WNW 12.7 mph - 0.19 in Rain Heavy Rain
4:43 AM 62.6 °F - 60.8 °F 94% 29.46 in 3.0 mi NW 12.7 mph - 0.20 in Rain Light Rain
4:53 AM 62.1 °F - 60.1 °F 93% 29.43 in 3.0 mi NW 9.2 mph - 0.23 in Rain Rain
5:04 AM 62.6 °F - 60.8 °F 94% 29.45 in 1.8 mi NW 4.6 mph - 0.08 in Rain Heavy Rain
5:17 AM 62.6 °F - 60.8 °F 94% 29.46 in 1.8 mi WNW 5.8 mph - 0.17 in Rain Heavy Rain
5:25 AM 62.6 °F - 59.0 °F 88% 29.46 in 3.0 mi WNW 8.1 mph - 0.18 in Rain Light Rain
5:34 AM 62.6 °F - 59.0 °F 88% 29.46 in 7.0 mi West 10.4 mph - 0.19 in Rain Light Rain
5:53 AM 60.1 °F - 57.0 °F 90% 29.44 in 10.0 mi WNW 9.2 mph - 0.19 in   Overcast
6:28 AM 57.2 °F - 55.4 °F 94% 29.49 in 2.5 mi West 18.4 mph 25.3 mph N/A   Overcast
6:53 AM 53.6 °F - 51.8 °F 94% 29.49 in 2.5 mi West 15.0 mph 23.0 mph N/A   Overcast
7:17 AM 53.6 °F - 51.8 °F 94% 29.48 in 3.0 mi WNW 11.5 mph - N/A   Overcast
7:34 AM 51.8 °F - 50.0 °F 94% 29.49 in 5.0 mi West 15.0 mph - N/A   Overcast
7:53 AM 52.0 °F - 48.9 °F 89% 29.50 in 5.0 mi West 15.0 mph - 0.05 in Rain Heavy Rain
7:56 AM 51.8 °F - 48.2 °F 88% 29.52 in 1.5 mi SW 12.7 mph - 0.01 in Rain Rain
8:17 AM 51.8 °F - 48.2 °F 88% 29.49 in 4.0 mi WNW 11.5 mph 23.0 mph 0.11 in Rain Light Rain
8:24 AM 51.8 °F - 48.2 °F 88% 29.50 in 4.0 mi West 10.4 mph - 0.11 in   Overcast
8:53 AM 50.0 °F - 48.0 °F 93% 29.51 in 4.0 mi West 13.8 mph - 0.11 in   Overcast
9:53 AM 48.9 °F - 46.0 °F 90% 29.53 in 10.0 mi West 19.6 mph 25.3 mph N/A   Overcast
10:37 AM 48.2 °F - 44.6 °F 87% 29.54 in 6.0 mi West 12.7 mph 21.9 mph N/A   Overcast
10:53 AM 48.9 °F - 44.1 °F 83% 29.53 in 9.0 mi West 15.0 mph 20.7 mph N/A   Overcast
11:15 AM 48.2 °F - 44.6 °F 87% 29.54 in 7.0 mi WNW 13.8 mph 19.6 mph N/A   Overcast
11:53 AM 48.2 °F - 44.6 °F 87% 29.54 in 10.0 mi West 11.5 mph 23.0 mph N/A   Overcast
12:53 PM 48.9 °F - 43.0 °F 80% 29.54 in 10.0 mi WNW 15.0 mph 27.6 mph N/A   Overcast
1:43 PM 48.2 °F - 42.8 °F 82% 29.55 in 10.0 mi West 15.0 mph 21.9 mph N/A   Overcast
1:53 PM 48.0 °F - 42.1 °F 80% 29.55 in 10.0 mi West 15.0 mph 26.5 mph N/A   Overcast
2:53 PM 48.9 °F - 39.0 °F 69% 29.55 in 10.0 mi West 18.4 mph 31.1 mph N/A   Overcast
3:53 PM 48.9 °F - 39.9 °F 71% 29.58 in 10.0 mi West 17.3 mph 25.3 mph N/A   Overcast
4:53 PM 48.9 °F - 39.9 °F 71% 29.60 in 10.0 mi West 13.8 mph 21.9 mph N/A   Overcast
4:54 PM 48.2 °F - 39.2 °F 71% 29.61 in 10.0 mi West 15.0 mph 21.9 mph N/A   Overcast
5:53 PM 48.9 °F - 39.9 °F 71% 29.63 in 10.0 mi West 16.1 mph 21.9 mph N/A   Overcast
6:53 PM 48.9 °F - 37.9 °F 66% 29.67 in 10.0 mi West 12.7 mph 20.7 mph N/A   Overcast
7:53 PM 48.9 °F - 37.9 °F 66% 29.71 in 10.0 mi West 16.1 mph 23.0 mph N/A   Overcast
8:53 PM 48.0 °F - 37.9 °F 68% 29.73 in 10.0 mi West 11.5 mph 23.0 mph N/A   Overcast
9:44 PM 46.4 °F 40.7 °F 37.4 °F 71% 29.73 in 10.0 mi West 12.7 mph 20.7 mph N/A   Overcast
9:53 PM 46.9 °F - 37.9 °F 71% 29.75 in 10.0 mi West 11.5 mph 20.7 mph N/A   Overcast
10:31 PM 46.4 °F 41.5 °F 37.4 °F 71% 29.75 in 10.0 mi West 10.4 mph 18.4 mph N/A   Overcast
10:53 PM 46.9 °F - 37.9 °F 71% 29.76 in 10.0 mi West 13.8 mph 19.6 mph N/A   Overcast
11:53 PM 46.9 °F - 39.0 °F 74% 29.78 in 10.0 mi West 12.7 mph 18.4 mph N/A   Overcast